,,,PA_Meas_PMT16A,,PR_Meas_QMR101_102,,RH_Meas_QMH101,,SR_Meas_QMS101,,TA_Meas_QMH101,,GenWind,,GenWind,
date,time,status,PA,status,PR,status,RH,status,SR,status,TA,status,DirAvg,status,SpdAvg,
2010-03-18, 00:00:04,VALID,1005.71,VALID,0,VALID,89.7843,VALID,0,VALID,25.1034,VALID,277,VALID,0,
2010-03-18, 00:01:04,VALID,1005.71,VALID,0,VALID,90.1505,VALID,0,VALID,25.0839,VALID,277,VALID,0,
2010-03-18, 00:02:04,VALID,1005.69,VALID,0,VALID,89.9445,VALID,0,VALID,25.045,VALID,333,VALID,0.216797,
2010-03-18, 00:03:04,VALID,1005.66,VALID,0,VALID,89.441,VALID,0,VALID,25.0469,VALID,359,VALID,0.596875,
2010-03-18, 00:04:04,VALID,1005.64,VALID,0,VALID,88.6857,VALID,0,VALID,25.0255,VALID,340,VALID,0.812109,
2010-03-18, 00:05:04,VALID,1005.62,VALID,0,VALID,88.2967,VALID,0,VALID,25.0255,VALID,357,VALID,0.622656,
2010-03-18, 00:06:04,VALID,1005.59,VALID,0,VALID,88.0754,VALID,0,VALID,25.045,VALID,360,VALID,0.584766,
2010-03-18, 00:07:04,VALID,1005.58,VALID,0,VALID,88.0907,VALID,0,VALID,25.0839,VALID,5,VALID,0.585938,
2010-03-18, 00:08:04,VALID,1005.53,VALID,0,VALID,87.694,VALID,0,VALID,25.0858,VALID,250,VALID,0.327344,
2010-03-18, 00:09:04,VALID,1005.52,VALID,0,VALID,87.1752,VALID,0,VALID,25.0839,VALID,9,VALID,1.60391,
2010-03-18, 00:10:04,VALID,1005.5,VALID,0,VALID,87.1218,VALID,0,VALID,25.1442,VALID,345,VALID,0.626953,
2010-03-18, 00:11:04,VALID,1005.46,VALID,0,VALID,87.3507,VALID,0,VALID,25.1423,VALID,10,VALID,0.750391,
2010-03-18, 00:12:04,VALID,1005.47,VALID,0,VALID,87.2439,VALID,0,VALID,25.1423,VALID,352,VALID,0.670313,
2010-03-18, 00:13:04,VALID,1005.45,VALID,0,VALID,87.3507,VALID,0,VALID,25.1423,VALID,13,VALID,0.744531,
2010-03-18, 00:14:04,VALID,1005.46,VALID,0,VALID,87.3507,VALID,0,VALID,25.1637,VALID,10,VALID,0.703906,
2010-03-18, 00:15:04,VALID,1005.44,VALID,0,VALID,87.5338,VALID,0,VALID,25.1229,VALID,4,VALID,0.50625,
2010-03-18, 00:16:04,VALID,1005.4,VALID,0,VALID,87.3583,VALID,0,VALID,25.1637,VALID,339,VALID,0.744531,
2010-03-18, 00:17:04,VALID,1005.4,VALID,0,VALID,87.3507,VALID,0.100563,VALID,25.1229,VALID,348,VALID,0.717969,
2010-03-18, 00:18:04,VALID,1005.39,VALID,0,VALID,87.4117,VALID,0,VALID,25.1423,VALID,343,VALID,0.588281,
2010-03-18, 00:19:04,VALID,1005.34,VALID,0,VALID,87.3507,VALID,0,VALID,25.1442,VALID,335,VALID,0.986328,
2010-03-18, 00:20:04,VALID,1005.36,VALID,0,VALID,87.1676,VALID,0,VALID,25.1442,VALID,358,VALID,0.900781,
2010-03-18, 00:21:04,VALID,1005.36,VALID,0,VALID,87.16,VALID,0,VALID,25.1637,VALID,349,VALID,0.939844,
2010-03-18, 00:22:04,VALID,1005.35,VALID,0,VALID,87.1828,VALID,0,VALID,25.1832,VALID,335,VALID,0.566797,
2010-03-18, 00:23:04,VALID,1005.35,VALID,0,VALID,87.2439,VALID,0,VALID,25.1618,VALID,333,VALID,0.373828,
2010-03-18, 00:24:04,VALID,1005.34,VALID,0,VALID,87.2362,VALID,0,VALID,25.1618,VALID,351,VALID,1.30313,
2010-03-18, 00:25:04,VALID,1005.29,VALID,0,VALID,87.1905,VALID,0.100563,VALID,25.1832,VALID,356,VALID,0.710938,
2010-03-18, 00:26:04,VALID,1005.32,VALID,0,VALID,87.4117,VALID,0,VALID,25.1618,VALID,8,VALID,0.38125,
2010-03-18, 00:27:04,VALID,1005.27,VALID,0,VALID,87.3125,VALID,0,VALID,25.1832,VALID,349,VALID,1.05117,
2010-03-18, 00:28:04,VALID,1005.26,VALID,0,VALID,87.4956,VALID,0,VALID,25.1832,VALID,346,VALID,0.585938,
2010-03-18, 00:29:04,VALID,1005.25,VALID,0,VALID,87.488,VALID,0,VALID,25.1832,VALID,326,VALID,0.315234,
2010-03-18, 00:30:04,VALID,1005.23,VALID,0,VALID,87.5948,VALID,0,VALID,25.1832,VALID,345,VALID,0.859766,
2010-03-18, 00:31:04,VALID,1005.18,VALID,0,VALID,87.3583,VALID,0,VALID,25.1832,VALID,2,VALID,0.892187,
2010-03-18, 00:32:04,VALID,1005.19,VALID,0,VALID,87.3888,VALID,0,VALID,25.2027,VALID,1,VALID,1.01797,
2010-03-18, 00:33:04,VALID,1005.19,VALID,0,VALID,87.4422,VALID,0,VALID,25.1813,VALID,331,VALID,0.690625,
2010-03-18, 00:34:04,VALID,1005.17,VALID,0,VALID,87.5719,VALID,0,VALID,25.1813,VALID,327,VALID,0.182812,
2010-03-18, 00:35:04,VALID,1005.18,VALID,0,VALID,87.7016,VALID,0,VALID,25.2027,VALID,293,VALID,0.546484,
2010-03-18, 00:36:04,VALID,1005.16,VALID,0,VALID,87.5719,VALID,0,VALID,25.1637,VALID,343,VALID,0.484375,
2010-03-18, 00:37:04,VALID,1005.13,VALID,0,VALID,87.6635,VALID,0,VALID,25.1832,VALID,343,VALID,0.046875,
2010-03-18, 00:38:04,VALID,1005.15,VALID,0,VALID,87.7092,VALID,0,VALID,25.1618,VALID,25,VALID,0.334766,
2010-03-18, 00:39:04,VALID,1005.13,VALID,0,VALID,87.8542,VALID,0,VALID,25.1618,VALID,287,VALID,0.248047,
2010-03-18, 00:40:04,VALID,1005.09,VALID,0,VALID,87.961,VALID,0,VALID,25.1637,VALID,345,VALID,0.282813,
2010-03-18, 00:41:04,VALID,1005.05,VALID,0,VALID,87.9,VALID,0.100563,VALID,25.1637,VALID,350,VALID,0.798047,
2010-03-18, 00:42:04,VALID,1005.03,VALID,0,VALID,87.8694,VALID,0,VALID,25.1034,VALID,347,VALID,0.930078,
2010-03-18, 00:43:04,VALID,1005.02,VALID,0,VALID,87.9,VALID,0,VALID,25.1034,VALID,358,VALID,0.902734,
2010-03-18, 00:44:04,VALID,1005,VALID,0,VALID,88.1899,VALID,0,VALID,25.0839,VALID,3,VALID,0.683594,
2010-03-18, 00:45:04,VALID,1004.97,VALID,0,VALID,88.495,VALID,0,VALID,25.0644,VALID,333,VALID,0.422266,
2010-03-18, 00:46:04,VALID,1004.94,VALID,0,VALID,88.6018,VALID,0,VALID,25.045,VALID,1,VALID,0.964453,
2010-03-18, 00:47:05,VALID,1004.94,VALID,0,VALID,88.7697,VALID,0,VALID,25.0274,VALID,14,VALID,0.744531,
2010-03-18, 00:48:05,VALID,1004.93,VALID,0,VALID,88.907,VALID,0.100563,VALID,24.9866,VALID,15,VALID,0.428516,
2010-03-18, 00:49:05,VALID,1004.88,VALID,0,VALID,88.8765,VALID,0,VALID,24.9671,VALID,9,VALID,1.15547,
2010-03-18, 00:50:05,VALID,1004.92,VALID,0,VALID,88.907,VALID,0,VALID,24.9885,VALID,354,VALID,0.709375,
2010-03-18, 00:51:05,VALID,1004.91,VALID,0,VALID,88.8154,VALID,0,VALID,24.969,VALID,347,VALID,0.998438,
2010-03-18, 00:52:05,VALID,1004.91,VALID,0,VALID,88.6323,VALID,0,VALID,24.9671,VALID,346,VALID,1.19062,
2010-03-18, 00:53:05,VALID,1004.88,VALID,0,VALID,88.3272,VALID,0,VALID,25.0488,VALID,352,VALID,1.0582,
2010-03-18, 00:54:05,VALID,1004.87,VALID,0,VALID,88.2509,VALID,0,VALID,25.0644,VALID,354,VALID,1.03945,
2010-03-18, 00:55:05,VALID,1004.83,VALID,0,VALID,87.8618,VALID,0,VALID,25.0663,VALID,342,VALID,1.25273,
2010-03-18, 00:56:05,VALID,1004.8,VALID,0,VALID,87.7932,VALID,0,VALID,25.1053,VALID,355,VALID,0.616406,
2010-03-18, 00:57:05,VALID,1004.79,VALID,0,VALID,87.5795,VALID,0.100563,VALID,25.1442,VALID,346,VALID,1.07773,
2010-03-18, 00:58:05,VALID,1004.78,VALID,0,VALID,87.5338,VALID,0,VALID,25.1229,VALID,351,VALID,0.93125,
2010-03-18, 00:59:05,VALID,1004.74,VALID,0,VALID,87.2515,VALID,0,VALID,25.1618,VALID,338,VALID,0.836328,
2010-03-18, 01:00:05,VALID,1004.77,VALID,0,VALID,87.076,VALID,0,VALID,25.2221,VALID,351,VALID,1.26133,
2010-03-18, 01:01:05,VALID,1004.77,VALID,0,VALID,87.1218,VALID,0,VALID,25.2416,VALID,346,VALID,0.6125,
2010-03-18, 01:02:05,VALID,1004.75,VALID,0,VALID,87.0303,VALID,0,VALID,25.2202,VALID,349,VALID,0.925,
2010-03-18, 01:03:05,VALID,1004.76,VALID,0,VALID,87.1752,VALID,0,VALID,25.2202,VALID,359,VALID,0.817969,
2010-03-18, 01:04:05,VALID,1004.78,VALID,0,VALID,87.1066,VALID,0,VALID,25.2007,VALID,351,VALID,0.805469,
2010-03-18, 01:05:05,VALID,1004.74,VALID,0,VALID,87.2744,VALID,0,VALID,25.1813,VALID,360,VALID,0.90625,
2010-03-18, 01:06:05,VALID,1004.77,VALID,0,VALID,87.3888,VALID,0,VALID,25.1618,VALID,349,VALID,0.782812,
2010-03-18, 01:07:05,VALID,1004.77,VALID,0,VALID,87.2591,VALID,0,VALID,25.1637,VALID,357,VALID,1.64961,
2010-03-18, 01:08:05,VALID,1004.77,VALID,0,VALID,87.3888,VALID,0,VALID,25.1637,VALID,355,VALID,1.32031,
2010-03-18, 01:09:05,VALID,1004.76,VALID,0,VALID,87.3659,VALID,0,VALID,25.1637,VALID,353,VALID,0.918359,
2010-03-18, 01:10:05,VALID,1004.73,VALID,0,VALID,87.3812,VALID,0,VALID,25.1423,VALID,355,VALID,1.22578,
2010-03-18, 01:11:05,VALID,1004.74,VALID,0,VALID,87.3507,VALID,0,VALID,25.1423,VALID,342,VALID,1.125,
2010-03-18, 01:12:05,VALID,1004.78,VALID,0,VALID,87.4575,VALID,0,VALID,25.1442,VALID,355,VALID,1.00469,
2010-03-18, 01:13:05,VALID,1004.77,VALID,0,VALID,87.3659,VALID,0,VALID,25.1423,VALID,359,VALID,0.632422,
2010-03-18, 01:14:05,VALID,1004.79,VALID,0,VALID,87.4041,VALID,0,VALID,25.1442,VALID,355,VALID,0.455469,
2010-03-18, 01:15:05,VALID,1004.78,VALID,0,VALID,87.5261,VALID,0,VALID,25.1423,VALID,5,VALID,0.74375,
2010-03-18, 01:16:05,VALID,1004.83,VALID,0,VALID,87.4804,VALID,0,VALID,25.1637,VALID,343,VALID,0.729297,
2010-03-18, 01:17:05,VALID,1004.8,VALID,0,VALID,87.5109,VALID,0,VALID,25.1423,VALID,346,VALID,1.0957,
2010-03-18, 01:18:05,VALID,1004.8,VALID,0,VALID,87.6253,VALID,0.100563,VALID,25.1637,VALID,351,VALID,0.729688,
2010-03-18, 01:19:05,VALID,1004.79,VALID,0,VALID,87.6406,VALID,0,VALID,25.1229,VALID,346,VALID,1.13828,
2010-03-18, 01:20:05,VALID,1004.78,VALID,0,VALID,87.755,VALID,0,VALID,25.1423,VALID,355,VALID,0.996875,
2010-03-18, 01:21:05,VALID,1004.78,VALID,0,VALID,87.7398,VALID,0,VALID,25.1832,VALID,2,VALID,1.40195,
2010-03-18, 01:22:05,VALID,1004.73,VALID,0,VALID,87.816,VALID,0.100563,VALID,25.1813,VALID,5,VALID,1.07422,
2010-03-18, 01:23:05,VALID,1004.79,VALID,0,VALID,87.8237,VALID,0,VALID,25.2027,VALID,342,VALID,0.894531,
2010-03-18, 01:24:05,VALID,1004.77,VALID,0,VALID,87.8618,VALID,0.100563,VALID,25.1813,VALID,329,VALID,0.464063,
2010-03-18, 01:25:05,VALID,1004.75,VALID,0,VALID,87.8771,VALID,0,VALID,25.1618,VALID,353,VALID,0.875,
2010-03-18, 01:26:05,VALID,1004.77,VALID,0,VALID,87.7855,VALID,0,VALID,25.1813,VALID,1,VALID,1.14883,
2010-03-18, 01:27:05,VALID,1004.77,VALID,0,VALID,87.8008,VALID,0,VALID,25.2202,VALID,357,VALID,1.20273,
2010-03-18, 01:28:05,VALID,1004.73,VALID,0,VALID,87.5948,VALID,0,VALID,25.2397,VALID,346,VALID,0.679688,
2010-03-18, 01:29:05,VALID,1004.7,VALID,0,VALID,87.6863,VALID,0,VALID,25.2786,VALID,359,VALID,0.784375,
2010-03-18, 01:30:05,VALID,1004.7,VALID,0,VALID,87.6101,VALID,0.100563,VALID,25.2786,VALID,355,VALID,0.992188,
2010-03-18, 01:31:05,VALID,1004.69,VALID,0,VALID,87.2591,VALID,0,VALID,25.3176,VALID,24,VALID,1.97578,
2010-03-18, 01:32:05,VALID,1004.65,VALID,0,VALID,87.0303,VALID,0,VALID,25.376,VALID,348,VALID,1.27188,
2010-03-18, 01:33:05,VALID,1004.62,VALID,0,VALID,87.1905,VALID,0,VALID,25.4169,VALID,12,VALID,0.655078,
2010-03-18, 01:34:05,VALID,1004.59,VALID,0,VALID,86.7709,VALID,0,VALID,25.4363,VALID,348,VALID,1.09687,
2010-03-18, 01:35:05,VALID,1004.54,VALID,0,VALID,86.5268,VALID,0,VALID,25.4753,VALID,1,VALID,1.63789,
2010-03-18, 01:36:05,VALID,1004.49,VALID,0,VALID,85.5274,VALID,0,VALID,25.5513,VALID,2,VALID,2.22109,
2010-03-18, 01:37:05,VALID,1004.45,VALID,0,VALID,85.2222,VALID,0,VALID,25.6311,VALID,334,VALID,0.892187,
2010-03-18, 01:38:05,VALID,1004.43,VALID,0,VALID,85.4663,VALID,0,VALID,25.6506,VALID,350,VALID,0.923828,
2010-03-18, 01:39:05,VALID,1004.38,VALID,0,VALID,84.94,VALID,0.100563,VALID,25.6292,VALID,355,VALID,0.968359,
2010-03-18, 01:40:05,VALID,1004.36,VALID,0,VALID,85.0468,VALID,0,VALID,25.6486,VALID,340,VALID,1.45391,
2010-03-18, 01:41:05,VALID,1004.38,VALID,0,VALID,85.001,VALID,0,VALID,25.6486,VALID,358,VALID,1.94687,
2010-03-18, 01:42:05,VALID,1004.37,VALID,0,VALID,84.9934,VALID,0,VALID,25.6681,VALID,1,VALID,1.31211,
2010-03-18, 01:43:05,VALID,1004.4,VALID,0,VALID,85.0544,VALID,0,VALID,25.6895,VALID,329,VALID,0.616406,
2010-03-18, 01:44:05,VALID,1004.37,VALID,0,VALID,85.0315,VALID,0,VALID,25.6681,VALID,5,VALID,1.39766,
2010-03-18, 01:45:05,VALID,1004.38,VALID,0,VALID,85.0696,VALID,0,VALID,25.67,VALID,352,VALID,1.11523,
2010-03-18, 01:46:05,VALID,1004.38,VALID,0,VALID,85.0849,VALID,0,VALID,25.6895,VALID,352,VALID,1.18555,
2010-03-18, 01:47:05,VALID,1004.39,VALID,0,VALID,85.062,VALID,0,VALID,25.6486,VALID,358,VALID,0.927344,
2010-03-18, 01:48:05,VALID,1004.37,VALID,0,VALID,85.1078,VALID,0,VALID,25.6486,VALID,329,VALID,0.477344,
2010-03-18, 01:49:05,VALID,1004.35,VALID,0,VALID,85.329,VALID,0.100563,VALID,25.6486,VALID,352,VALID,1.30742,
2010-03-18, 01:50:05,VALID,1004.34,VALID,0,VALID,85.3138,VALID,0,VALID,25.6506,VALID,354,VALID,1.31602,
2010-03-18, 01:51:05,VALID,1004.34,VALID,0,VALID,85.6342,VALID,0,VALID,25.6097,VALID,353,VALID,0.827344,
2010-03-18, 01:52:05,VALID,1004.31,VALID,0,VALID,85.7105,VALID,0,VALID,25.5902,VALID,332,VALID,1.01602,
2010-03-18, 01:53:05,VALID,1004.35,VALID,0,VALID,85.8936,VALID,0,VALID,25.5513,VALID,343,VALID,1.20742,
2010-03-18, 01:54:05,VALID,1004.35,VALID,0,VALID,86.2292,VALID,0,VALID,25.5532,VALID,326,VALID,0.405078,
2010-03-18, 01:55:05,VALID,1004.37,VALID,0,VALID,86.1987,VALID,0,VALID,25.5142,VALID,345,VALID,1.18945,
2010-03-18, 01:56:05,VALID,1004.41,VALID,0,VALID,86.481,VALID,0,VALID,25.4539,VALID,288,VALID,1.23867,
2010-03-18, 01:57:05,VALID,1004.44,VALID,0,VALID,86.5039,VALID,0,VALID,25.4363,VALID,7,VALID,0.923047,
2010-03-18, 01:58:05,VALID,1004.41,VALID,0,VALID,86.6717,VALID,0,VALID,25.4169,VALID,343,VALID,1.29805,
2010-03-18, 01:59:05,VALID,1004.42,VALID,0,VALID,86.7709,VALID,0,VALID,25.339,VALID,360,VALID,0.969141,
2010-03-18, 02:00:05,VALID,1004.41,VALID,0,VALID,87.1371,VALID,0.100563,VALID,25.2786,VALID,338,VALID,1.01758,
2010-03-18, 02:01:05,VALID,1004.34,VALID,0,VALID,87.2515,VALID,0,VALID,25.2397,VALID,3,VALID,1.88945,
2010-03-18, 02:02:05,VALID,1004.36,VALID,0,VALID,87.5795,VALID,0,VALID,25.1813,VALID,318,VALID,1.94336,
2010-03-18, 02:03:05,VALID,1004.36,VALID,0,VALID,87.9534,VALID,0,VALID,25.1618,VALID,319,VALID,1.54062,
2010-03-18, 02:04:05,VALID,1004.38,VALID,0,VALID,88.2127,VALID,0,VALID,25.1442,VALID,289,VALID,1.33594,
2010-03-18, 02:05:05,VALID,1004.37,VALID,0,VALID,88.4874,VALID,0,VALID,25.0858,VALID,328,VALID,1.1543,
2010-03-18, 02:06:05,VALID,1004.37,VALID,0,VALID,88.9222,VALID,0,VALID,25.0469,VALID,286,VALID,1.34375,
2010-03-18, 02:07:05,VALID,1004.38,VALID,0.5,VALID,89.2884,VALID,0,VALID,24.9885,VALID,292,VALID,2.10313,
2010-03-18, 02:08:05,VALID,1004.36,VALID,0,VALID,89.975,VALID,0,VALID,24.93,VALID,287,VALID,2.46953,
2010-03-18, 02:09:05,VALID,1004.38,VALID,0.5,VALID,91.333,VALID,0,VALID,24.8132,VALID,274,VALID,1.09766,
2010-03-18, 02:10:05,VALID,1004.38,VALID,0,VALID,92.1645,VALID,0,VALID,24.6945,VALID,289,VALID,1.13789,
2010-03-18, 02:11:05,VALID,1004.41,VALID,0,VALID,92.6299,VALID,0,VALID,24.5972,VALID,298,VALID,0.9125,
2010-03-18, 02:12:05,VALID,1004.43,VALID,0.5,VALID,93.0266,VALID,0,VALID,24.5582,VALID,301,VALID,1.38984,
2010-03-18, 02:13:05,VALID,1004.47,VALID,0,VALID,93.3928,VALID,0,VALID,24.4804,VALID,291,VALID,0.947656,
2010-03-18, 02:14:05,VALID,1004.47,VALID,0,VALID,93.675,VALID,0,VALID,24.4414,VALID,277,VALID,0.555859,
2010-03-18, 02:15:05,VALID,1004.5,VALID,0,VALID,93.881,VALID,0,VALID,24.4238,VALID,278,VALID,1.11602,
2010-03-18, 02:16:05,VALID,1004.54,VALID,0,VALID,94.0259,VALID,0,VALID,24.3849,VALID,297,VALID,2.66406,
2010-03-18, 02:17:05,VALID,1004.54,VALID,0,VALID,94.0717,VALID,0,VALID,24.3459,VALID,293,VALID,1.18438,
2010-03-18, 02:18:05,VALID,1004.54,VALID,0,VALID,94.1633,VALID,0,VALID,24.3246,VALID,306,VALID,0.686328,
2010-03-18, 02:19:05,VALID,1004.56,VALID,0,VALID,94.2853,VALID,0,VALID,24.3459,VALID,254,VALID,0.729688,
2010-03-18, 02:20:05,VALID,1004.54,VALID,0,VALID,94.3921,VALID,0,VALID,24.3459,VALID,290,VALID,1.29727,
2010-03-18, 02:21:05,VALID,1004.58,VALID,0,VALID,94.4761,VALID,0,VALID,24.3459,VALID,299,VALID,1.79648,
2010-03-18, 02:22:05,VALID,1004.56,VALID,0.5,VALID,94.5142,VALID,0,VALID,24.3673,VALID,81,VALID,0.675391,
2010-03-18, 02:23:05,VALID,1004.55,VALID,0,VALID,94.5523,VALID,0,VALID,24.3459,VALID,291,VALID,1.05938,
2010-03-18, 02:24:05,VALID,1004.53,VALID,0,VALID,94.5981,VALID,0,VALID,24.3459,VALID,291,VALID,1.21563,
2010-03-18, 02:25:05,VALID,1004.5,VALID,0,VALID,94.6363,VALID,0,VALID,24.3654,VALID,282,VALID,1.21992,
2010-03-18, 02:26:05,VALID,1004.47,VALID,0,VALID,94.621,VALID,0,VALID,24.3478,VALID,276,VALID,1.51289,
2010-03-18, 02:27:05,VALID,1004.48,VALID,0,VALID,94.5905,VALID,0,VALID,24.3283,VALID,296,VALID,0.516797,
2010-03-18, 02:28:05,VALID,1004.48,VALID,0,VALID,94.6057,VALID,0,VALID,24.3052,VALID,313,VALID,0.642187,
2010-03-18, 02:29:05,VALID,1004.47,VALID,0,VALID,94.5905,VALID,0,VALID,24.307,VALID,329,VALID,0.418359,
2010-03-18, 02:30:05,VALID,1004.47,VALID,0,VALID,94.6134,VALID,0.100563,VALID,24.307,VALID,304,VALID,1.23516,
2010-03-18, 02:31:05,VALID,1004.45,VALID,0,VALID,94.6134,VALID,0,VALID,24.3283,VALID,322,VALID,0.667969,
2010-03-18, 02:32:05,VALID,1004.47,VALID,0,VALID,94.6134,VALID,0,VALID,24.2875,VALID,326,VALID,0.516016,
2010-03-18, 02:33:05,VALID,1004.48,VALID,0,VALID,94.6363,VALID,0,VALID,24.3088,VALID,273,VALID,0.657422,
2010-03-18, 02:34:05,VALID,1004.46,VALID,0,VALID,94.6591,VALID,0,VALID,24.2681,VALID,276,VALID,0.342187,
2010-03-18, 02:35:05,VALID,1004.47,VALID,0.5,VALID,94.6744,VALID,0,VALID,24.2681,VALID,346,VALID,0.737109,
2010-03-18, 02:36:05,VALID,1004.48,VALID,0,VALID,94.6973,VALID,0,VALID,24.2681,VALID,334,VALID,0.321484,
2010-03-18, 02:37:05,VALID,1004.45,VALID,0,VALID,94.7507,VALID,0,VALID,24.2681,VALID,279,VALID,0.0664063,
2010-03-18, 02:38:05,VALID,1004.4,VALID,0,VALID,94.7507,VALID,0,VALID,24.2486,VALID,286,VALID,0.585156,
2010-03-18, 02:39:05,VALID,1004.42,VALID,0,VALID,94.7736,VALID,0,VALID,24.2486,VALID,295,VALID,0.817969,
2010-03-18, 02:40:05,VALID,1004.42,VALID,0,VALID,94.8041,VALID,0,VALID,24.2504,VALID,338,VALID,0.606641,
2010-03-18, 02:41:05,VALID,1004.42,VALID,0,VALID,94.7736,VALID,0,VALID,24.2097,VALID,309,VALID,0.84375,
2010-03-18, 02:42:05,VALID,1004.4,VALID,0,VALID,94.7736,VALID,0,VALID,24.1902,VALID,303,VALID,0.836719,
2010-03-18, 02:43:05,VALID,1004.41,VALID,0,VALID,94.766,VALID,0,VALID,24.1902,VALID,270,VALID,0.252734,
2010-03-18, 02:44:05,VALID,1004.37,VALID,0.5,VALID,94.7583,VALID,0,VALID,24.1707,VALID,356,VALID,0.691797,
2010-03-18, 02:45:05,VALID,1004.36,VALID,0,VALID,94.7354,VALID,0,VALID,24.1707,VALID,343,VALID,0.646875,
2010-03-18, 02:46:05,VALID,1004.37,VALID,0,VALID,94.7736,VALID,0,VALID,24.13,VALID,348,VALID,0.645703,
2010-03-18, 02:47:05,VALID,1004.33,VALID,0,VALID,94.7888,VALID,0,VALID,24.1513,VALID,352,VALID,0.958594,
2010-03-18, 02:48:05,VALID,1004.35,VALID,0,VALID,94.7965,VALID,0,VALID,24.0929,VALID,326,VALID,0.337891,
2010-03-18, 02:49:05,VALID,1004.39,VALID,0,VALID,94.8499,VALID,0,VALID,24.1123,VALID,352,VALID,0.875,
2010-03-18, 02:50:05,VALID,1004.39,VALID,0,VALID,94.9033,VALID,0,VALID,24.091,VALID,354,VALID,0.2625,
2010-03-18, 02:51:05,VALID,1004.36,VALID,0,VALID,94.9338,VALID,0,VALID,24.0734,VALID,353,VALID,1.19492,
2010-03-18, 02:52:05,VALID,1004.33,VALID,0,VALID,94.9414,VALID,0,VALID,24.0326,VALID,357,VALID,0.865625,
2010-03-18, 02:53:05,VALID,1004.3,VALID,0,VALID,94.9643,VALID,0,VALID,24.0539,VALID,353,VALID,1.03008,
2010-03-18, 02:54:05,VALID,1004.26,VALID,0,VALID,95.0024,VALID,0,VALID,24.0132,VALID,346,VALID,0.675391,
2010-03-18, 02:55:05,VALID,1004.24,VALID,0.5,VALID,95.0406,VALID,0,VALID,24.0132,VALID,352,VALID,0.809375,
2010-03-18, 02:56:05,VALID,1004.22,VALID,0,VALID,95.0558,VALID,0,VALID,23.9937,VALID,341,VALID,1.07461,
2010-03-18, 02:57:05,VALID,1004.2,VALID,0,VALID,95.0711,VALID,0.100563,VALID,23.9955,VALID,348,VALID,0.721484,
2010-03-18, 02:58:05,VALID,1004.2,VALID,0,VALID,95.0787,VALID,0,VALID,23.9548,VALID,338,VALID,0.953906,
2010-03-18, 02:59:05,VALID,1004.15,VALID,0,VALID,95.0864,VALID,0,VALID,23.9548,VALID,352,VALID,1.14297,
2010-03-18, 03:00:05,VALID,1004.18,VALID,0,VALID,95.094,VALID,0,VALID,23.9566,VALID,24,VALID,0.554688,
2010-03-18, 03:01:05,VALID,1004.16,VALID,0,VALID,95.1169,VALID,0,VALID,23.9353,VALID,12,VALID,0.973047,
2010-03-18, 03:02:05,VALID,1004.17,VALID,0,VALID,95.1245,VALID,0,VALID,23.9159,VALID,354,VALID,1.31367,
2010-03-18, 03:03:05,VALID,1004.14,VALID,0,VALID,95.1016,VALID,0,VALID,23.8964,VALID,356,VALID,1.20391,
2010-03-18, 03:04:05,VALID,1004.13,VALID,0,VALID,95.0635,VALID,0,VALID,23.8964,VALID,355,VALID,1.17383,
2010-03-18, 03:05:05,VALID,1004.11,VALID,0,VALID,95.0558,VALID,0,VALID,23.9159,VALID,339,VALID,0.830078,
2010-03-18, 03:06:05,VALID,1004.13,VALID,0,VALID,95.033,VALID,0,VALID,23.9371,VALID,1,VALID,0.741797,
2010-03-18, 03:07:05,VALID,1004.14,VALID,0,VALID,95.0253,VALID,0,VALID,23.8964,VALID,354,VALID,1.03242,
2010-03-18, 03:08:05,VALID,1004.13,VALID,0,VALID,95.0024,VALID,0,VALID,23.8769,VALID,338,VALID,0.903125,
2010-03-18, 03:09:05,VALID,1004.16,VALID,0,VALID,94.9719,VALID,0,VALID,23.8982,VALID,341,VALID,0.567187,
2010-03-18, 03:10:05,VALID,1004.16,VALID,0,VALID,94.9643,VALID,0,VALID,23.8769,VALID,331,VALID,0.682813,
2010-03-18, 03:11:05,VALID,1004.15,VALID,0,VALID,94.9948,VALID,0,VALID,23.8769,VALID,355,VALID,1.12969,
2010-03-18, 03:12:05,VALID,1004.16,VALID,0,VALID,94.9643,VALID,0,VALID,23.838,VALID,346,VALID,1.10938,
2010-03-18, 03:13:05,VALID,1004.17,VALID,0.5,VALID,94.9567,VALID,0,VALID,23.8787,VALID,355,VALID,0.636328,
2010-03-18, 03:14:05,VALID,1004.18,VALID,0,VALID,94.9643,VALID,0,VALID,23.8575,VALID,350,VALID,0.466406,
2010-03-18, 03:15:05,VALID,1004.18,VALID,0,VALID,94.9643,VALID,0,VALID,23.8593,VALID,294,VALID,0.462109,
2010-03-18, 03:16:05,VALID,1004.15,VALID,0,VALID,94.9872,VALID,0,VALID,23.8593,VALID,301,VALID,0.322266,
2010-03-18, 03:17:05,VALID,1004.21,VALID,0,VALID,94.9948,VALID,0,VALID,23.8611,VALID,349,VALID,0.869141,
2010-03-18, 03:18:05,VALID,1004.18,VALID,0,VALID,94.9948,VALID,0,VALID,23.8611,VALID,6,VALID,0.565234,
2010-03-18, 03:19:05,VALID,1004.2,VALID,0,VALID,94.9796,VALID,0,VALID,23.8398,VALID,277,VALID,0.657422,
2010-03-18, 03:20:05,VALID,1004.22,VALID,0,VALID,94.9872,VALID,0,VALID,23.8398,VALID,333,VALID,0.575391,
2010-03-18, 03:21:05,VALID,1004.24,VALID,0,VALID,94.9872,VALID,0,VALID,23.8398,VALID,329,VALID,0.458203,
2010-03-18, 03:22:05,VALID,1004.23,VALID,0,VALID,94.9948,VALID,0,VALID,23.8203,VALID,1,VALID,0.392578,
2010-03-18, 03:23:05,VALID,1004.24,VALID,0,VALID,94.9872,VALID,0,VALID,23.8398,VALID,346,VALID,0.339063,
2010-03-18, 03:24:05,VALID,1004.24,VALID,0,VALID,95.0024,VALID,0,VALID,23.8593,VALID,346,VALID,0.0476562,
2010-03-18, 03:25:05,VALID,1004.23,VALID,0,VALID,95.0024,VALID,0,VALID,23.8593,VALID,346,VALID,0.009375,
2010-03-18, 03:26:05,VALID,1004.23,VALID,0,VALID,95.0101,VALID,0,VALID,23.8593,VALID,346,VALID,0.353125,
2010-03-18, 03:27:05,VALID,1004.23,VALID,0,VALID,95.0253,VALID,0,VALID,23.8398,VALID,328,VALID,0.389844,
2010-03-18, 03:28:05,VALID,1004.26,VALID,0,VALID,94.9948,VALID,0,VALID,23.8593,VALID,307,VALID,0.990234,
2010-03-18, 03:29:04,VALID,1004.29,VALID,0,VALID,95.0024,VALID,0,VALID,23.8593,VALID,326,VALID,0.354297,
2010-03-18, 03:30:04,VALID,1004.31,VALID,0,VALID,95.0024,VALID,0.100563,VALID,23.8575,VALID,324,VALID,0.238281,
2010-03-18, 03:31:04,VALID,1004.31,VALID,0,VALID,94.9872,VALID,0.100563,VALID,23.8769,VALID,284,VALID,0.772266,
2010-03-18, 03:32:04,VALID,1004.32,VALID,0,VALID,94.949,VALID,0.100563,VALID,23.8556,VALID,284,VALID,0.288672,
2010-03-18, 03:33:04,VALID,1004.34,VALID,0,VALID,94.9338,VALID,0,VALID,23.8593,VALID,284,VALID,0.0875,
2010-03-18, 03:34:04,VALID,1004.36,VALID,0,VALID,94.9185,VALID,0,VALID,23.8575,VALID,291,VALID,0.216406,
2010-03-18, 03:35:04,VALID,1004.4,VALID,0,VALID,94.9185,VALID,0,VALID,23.8593,VALID,308,VALID,0.371094,
2010-03-18, 03:36:04,VALID,1004.4,VALID,0,VALID,94.9185,VALID,0,VALID,23.8593,VALID,308,VALID,0.186719,
2010-03-18, 03:37:04,VALID,1004.4,VALID,0,VALID,94.9109,VALID,0,VALID,23.8593,VALID,307,VALID,0.360938,
2010-03-18, 03:38:04,VALID,1004.43,VALID,0,VALID,94.9262,VALID,0,VALID,23.8787,VALID,293,VALID,0.299609,
2010-03-18, 03:39:04,VALID,1004.44,VALID,0,VALID,94.9414,VALID,0,VALID,23.8593,VALID,275,VALID,0.428906,
2010-03-18, 03:40:04,VALID,1004.45,VALID,0,VALID,94.9414,VALID,0,VALID,23.8593,VALID,263,VALID,0.251563,
2010-03-18, 03:41:04,VALID,1004.43,VALID,0,VALID,94.9567,VALID,0,VALID,23.8593,VALID,261,VALID,0.563281,
2010-03-18, 03:42:04,VALID,1004.45,VALID,0,VALID,94.9796,VALID,0,VALID,23.8398,VALID,261,VALID,0.207813,
2010-03-18, 03:43:04,VALID,1004.43,VALID,0,VALID,95.0024,VALID,0,VALID,23.8398,VALID,261,VALID,0.236328,
2010-03-18, 03:44:04,VALID,1004.45,VALID,0,VALID,95.033,VALID,0,VALID,23.8416,VALID,261,VALID,0,